Location: Unspecified
(51.0950°N, 12.9690°E)
Time: 22:44:53
(UTC+00:00)

Cosmos 2016 Rocket - Pass Details

Date: 28 October 2021
Orbit: 946 x 1001 km, 83.0° (Epoch: 01 December)

Event Time Altitude Azimuth Distance (km) Brightness Sun altitude
Rises 19:06:47 0° 199° (SSW) 3,647 7.0 -31.3°
Reaches altitude 10° 19:09:20 10° 203° (SSW) 2,697 6.3 -31.7°
Maximum altitude 19:15:25 61° 284° (WNW) 1,078 4.3 -32.6°
Drops below altitude 10° 19:21:30 10° 5° (N) 2,687 6.5 -33.5°
Sets 19:24:02 0° 9° (N) 3,633 7.2 -33.8°
